Location: Grums
(59.3529°N, 13.1129°E)
Time: 02:48:26
(UTC+01:00)

SEEDS - Pass Details

Date: 02 December 2021
Orbit: 584 x 600 km, 97.6° (Epoch: 27 January)

Event Time Altitude Azimuth Distance (km) Brightness Sun altitude
Rises 06:33:08 0° 11° (N) 2,832 ? -14.3°
Reaches altitude 10° 06:35:40 10° 356° (N) 1,925 ? -14.0°
Maximum altitude 06:38:52 22° 306° (NW) 1,312 ? -13.7°
Enters shadow 06:39:06 22° 301° (WNW) 1,316 ? -13.6°
